Weather in Ordubad

Azerbaijan     38°54′21″N   46°01′21″E
temp.,
°C
wind,
m/s
gust,
m/s
humid.,
%
clouds,
%
prec.,
mm/h
press.,
hPa
HPBL,
m
23 april, fri
fri2301:00+13e1265100 0.1 101644
04:00+12ese12633 0.1 101522
07:00+12wnw11650 0.3 101718
10:00+15sw22550 0.6 1018780
13:00+18wsw34360 0.0 10171576
16:00+18s23260 0.0 10161567
19:00+14ese54601 0.0 1018248
22:00+10e556910 0.0 1020233
24 april, sat
sat2401:00+9e56675 0.0 1020196
04:00+9e45634 0.0 1019140
07:00+9ese34642 0.0 1019141
10:00+14sse33505 0.0 1018465
13:00+18s223820 0.0 1015906
16:00+20s22308 0.0 10131362
19:00+16ese33515 0.0 1014194
22:00+12ese456049 0.0 1017120
25 april, sun
sun2501:00+11e45622 0.0 1017127
04:00+10e456317 0.0 1017110
07:00+11e446237 0.0 1017123
10:00+16se43460 0.0 1016512
13:00+20s32330 0.0 10141170
16:00+21sse33281 0.0 10121849
19:00+18ese44495 0.0 1013188
22:00+14ese3457100 0.0 101589
26 april, mon
mon2601:00+13ese22530 0.0 101439
04:00+13e12462 0.0 101324
07:00+14ene01437 0.0 101316
10:00+20ssw22266 0.0 1012850
13:00+22sw25205 0.0 10102234
16:00+24ssw5718100 0.0 10083649
19:00+17wnw334711 0.1 1010206
22:00+15ssw1257100 0.5 1013121
27 april, tue
tue2701:00+15e3457100 0.7 1011162
04:00+13ssw116087 0.7 101113
07:00+14e225515 0.3 101129
10:00+18se454252 0.3 1010710
13:00+20ssw273799 0.3 10092034
16:00+17w3353100 1.4 1009798
19:00+11ene677698 4.0 1012277
22:00+9ese458691 7.2 1014187